ECMWFNIL_850_spd_042.txt.gz
Wind_Speed
17 17 18 17 18 17 15 14 14 14 13 12 11 10 10 9 9 8 7 6 6 5 5 5 5 5 7 7 7 8 8 8 10 10 9 10 12 13 15 15 14 16
18 18 17 17 16 16 17 15 14 14 12 10 11 11 10 10 10 9 7 5 4 4 5 5 4 4 5 6 7 9 9 7 9 9 9 12 14 14 14 14 13 13
18 17 17 16 15 16 16 15 13 14 13 13 13 12 9 8 9 9 8 7 5 5 5 5 4 4 4 4 5 7 7 7 9 8 9 11 13 12 13 14 14 12
18 17 17 16 16 16 16 16 16 16 15 14 12 10 8 8 8 8 9 10 9 8 7 5 5 5 4 3 4 5 5 7 10 9 9 10 10 11 13 13 14 13
19 17 17 16 16 17 17 17 17 16 15 12 9 7 6 6 7 7 9 11 11 9 7 6 5 4 4 4 4 5 4 5 8 8 10 12 10 9 11 12 13 14
21 19 18 17 17 17 18 17 16 15 14 11 8 7 5 6 7 7 7 8 7 6 5 5 5 4 4 3 3 5 4 4 6 7 10 12 10 9 9 10 12 13
23 22 20 18 18 17 16 16 15 14 13 11 9 7 6 8 8 6 6 6 5 5 4 3 4 4 5 4 3 5 5 5 6 6 8 9 9 8 8 10 11 12
24 24 23 20 19 18 17 17 16 15 13 12 10 8 7 8 8 7 8 6 6 6 5 5 5 4 5 6 5 4 6 6 6 7 8 8 9 9 8 9 11 13
26 25 25 23 21 20 19 18 17 15 14 12 11 10 9 7 6 7 9 7 6 7 6 7 7 4 4 6 5 5 6 6 6 8 8 8 9 9 7 10 12 14
30 26 25 25 25 22 19 18 17 16 14 12 11 11 10 8 6 7 9 8 7 6 5 6 6 5 7 7 6 6 6 6 7 7 6 7 10 9 7 8 12 14
32 28 25 26 25 22 20 18 17 16 14 12 11 11 10 8 7 8 8 7 8 6 4 5 6 8 9 8 8 7 6 6 7 7 8 8 9 10 7 6 8 12
30 28 26 26 24 23 21 18 17 16 15 13 12 10 9 8 8 8 6 6 7 7 6 7 7 8 8 8 10 10 8 7 6 7 8 8 7 9 9 7 5 6
27 27 27 26 24 24 23 19 17 17 15 14 13 11 10 10 9 9 7 6 7 7 7 8 8 8 8 8 10 11 11 10 8 6 7 7 7 6 6 5 4 4
27 26 27 27 26 26 24 20 19 18 16 15 14 12 11 10 10 10 10 9 9 8 8 10 8 7 8 8 9 10 11 11 11 9 7 9 9 7 6 7 6 5
30 28 28 28 27 26 24 22 20 19 17 15 14 14 12 11 11 11 10 10 12 10 8 10 10 7 8 9 8 8 8 8 10 9 8 8 7 5 8 8 6 5
33 31 29 28 27 26 25 22 20 19 18 15 14 14 13 12 12 12 10 10 12 11 9 10 11 8 7 9 9 8 6 6 6 7 7 8 6 4 6 5 4 5
31 30 29 28 27 26 25 23 21 20 18 16 15 16 14 13 13 13 11 11 11 10 10 10 10 10 9 8 9 9 7 8 7 5 6 7 4 3 5 4 4 4
28 30 29 28 28 28 27 26 25 22 20 19 18 17 16 14 14 14 13 13 11 8 8 9 9 11 11 10 10 9 9 10 9 6 6 7 5 4 5 5 6 6
29 30 31 31 31 31 30 30 28 26 25 24 22 20 19 16 15 14 12 13 12 7 5 6 8 10 11 12 12 11 11 10 7 6 6 7 7 6 5 7 9 7
32 33 35 35 34 33 33 31 30 29 27 26 23 22 21 17 13 11 10 11 11 7 4 4 6 7 8 10 11 12 12 11 8 7 8 8 9 8 6 8 11 10
35 36 36 35 33 33 33 31 30 30 27 24 21 19 17 13 9 8 9 9 8 7 5 6 6 5 6 7 8 9 11 12 10 10 9 7 8 8 6 6 9 8
35 37 35 34 34 33 33 31 30 28 24 22 20 17 14 11 10 9 9 8 8 7 7 7 6 6 6 6 7 8 10 11 8 6 7 6 6 6 5 5 7 8
31 33 33 33 33 32 31 29 26 22 20 19 18 16 13 12 12 12 11 10 10 9 9 8 8 8 7 7 8 8 9 9 6 3 3 3 2 3 4 4 5 6
28 28 29 30 29 28 26 24 21 18 17 16 15 14 12 11 11 12 12 11 10 10 10 9 9 10 9 9 10 9 9 10 10 7 5 5 6 3 2 3 4 5
22 21 22 21 20 18 17 18 17 17 16 15 14 13 11 10 11 11 11 11 10 10 10 9 9 10 10 10 11 11 11 11 11 11 10 11 10 6 2 1 4 6
13 11 11 11 10 9 10 13 15 16 16 16 14 12 10 11 12 11 11 10 10 9 9 8 8 8 8 9 10 11 12 12 13 12 11 11 12 8 3 1 5 7

ECMWFNIL_850_spd_045.txt.gz
Wind_Speed
28 26 25 24 23 23 23 22 22 21 20 18 16 15 15 14 14 13 12 11 10 10 9 8 8 9 11 12 13 12 12 12 12 13 14 13 14 16 18 20 20 20
28 26 25 25 24 23 22 21 21 21 19 16 15 15 14 13 13 12 11 10 11 10 9 9 9 9 10 12 13 13 12 13 14 14 14 13 14 16 17 18 20 20
30 28 27 27 26 24 22 20 19 18 17 16 15 13 12 12 12 10 10 10 10 10 10 9 9 9 9 10 11 12 12 13 14 14 14 14 14 15 17 18 19 19
30 29 29 28 26 24 22 21 19 18 17 16 14 11 11 11 11 10 11 10 9 8 9 10 10 10 10 10 10 11 11 11 12 12 13 15 14 15 17 18 17 16
30 30 29 29 27 25 23 22 20 19 16 14 12 11 11 11 11 12 13 12 10 8 7 10 12 12 11 10 10 12 12 12 13 13 14 16 16 16 16 17 17 16
31 32 30 30 29 27 25 23 21 19 16 14 13 13 12 12 13 15 17 15 11 9 9 11 12 12 12 11 11 11 12 13 14 14 14 16 17 16 15 16 17 16
33 32 30 30 31 29 26 25 22 20 17 15 15 14 13 14 14 15 16 14 10 9 10 11 12 12 11 11 12 11 11 12 13 13 15 15 16 16 15 16 17 17
32 31 29 30 31 30 27 25 23 20 18 16 15 14 14 14 14 15 14 12 11 10 9 9 11 13 11 10 11 11 10 11 12 13 15 15 15 15 15 15 16 15
31 28 28 30 30 29 27 24 22 20 19 17 16 15 15 14 14 16 15 12 11 11 11 9 9 11 12 10 9 10 10 10 11 12 14 15 14 14 14 14 15 15
27 27 28 30 28 26 25 22 22 21 20 18 17 17 16 14 15 18 16 14 13 13 12 10 8 10 13 11 10 11 10 10 10 10 11 12 12 12 12 13 13 14
25 27 28 29 27 25 24 22 21 21 21 20 19 18 16 15 18 18 15 13 12 11 11 11 11 13 14 12 12 11 11 11 11 9 9 10 10 10 9 10 11 12
26 28 28 28 27 26 25 23 21 21 21 21 20 19 17 17 18 16 13 12 11 11 14 16 16 16 14 12 11 11 10 11 11 11 11 11 11 10 8 8 10 12
28 28 29 29 28 27 25 23 23 21 22 22 20 19 18 18 17 14 12 14 14 14 17 19 18 18 17 15 14 12 11 11 11 12 12 12 12 11 11 10 9 10
28 27 29 29 29 27 25 24 24 22 21 21 19 19 20 19 17 14 14 15 15 15 17 18 17 17 18 18 16 16 16 14 11 10 11 13 15 14 13 13 11 9
30 28 28 29 29 27 25 24 24 23 22 21 19 21 23 20 18 17 16 15 16 17 17 17 15 14 16 18 17 18 19 17 14 13 14 16 18 15 13 13 10 8
32 31 30 29 28 27 25 24 25 24 23 22 21 22 23 21 19 18 16 15 16 16 16 16 16 15 15 17 17 16 18 18 16 15 16 17 17 15 12 11 8 7
30 31 33 31 29 27 26 25 26 25 24 23 22 23 23 23 22 19 17 17 17 16 14 14 15 16 15 16 15 13 15 17 17 15 14 13 13 12 11 10 9 8
28 30 33 33 31 28 27 27 27 25 24 24 24 24 24 25 23 19 17 18 17 16 15 14 14 15 16 16 14 12 14 15 15 15 13 11 11 11 11 11 11 11
29 30 30 32 32 29 27 27 27 25 25 26 26 25 26 26 23 20 18 17 16 14 13 13 14 14 16 17 16 15 15 15 15 14 12 10 11 12 13 13 13 14
28 29 27 29 31 29 27 27 27 27 27 28 27 26 26 26 23 20 18 16 16 13 10 11 13 14 15 18 18 17 16 15 15 14 11 10 11 12 15 17 15 14
24 28 27 28 30 30 29 29 29 30 30 29 29 27 26 24 22 20 17 16 15 12 9 10 13 13 14 17 19 19 16 15 15 14 12 12 13 13 17 19 16 15
22 26 28 29 30 31 32 32 33 33 33 31 30 28 26 23 20 18 17 15 14 12 10 12 13 13 14 15 17 19 18 15 15 14 13 13 13 13 15 17 15 14
23 26 29 31 33 34 34 34 34 34 33 32 30 28 25 22 19 17 16 15 14 13 12 12 13 14 14 14 15 16 17 17 17 16 14 13 13 12 12 12 12 12
22 24 27 30 33 33 33 33 32 31 30 29 28 26 22 18 17 16 16 15 15 15 13 13 13 14 14 15 15 15 15 16 16 16 14 14 14 13 11 11 12 11
19 21 23 27 30 29 29 29 28 27 26 24 22 20 17 15 13 13 14 15 15 15 15 14 14 15 15 16 16 16 15 15 15 15 15 15 16 15 13 12 12 12
18 19 21 24 24 22 21 21 19 19 19 18 16 14 12 12 11 10 12 14 14 14 15 15 14 15 16 17 18 18 17 16 16 16 16 16 17 16 15 13 12 12

ECMWFNIL_850_spd_048.txt.gz
Wind_Speed
26 25 24 23 23 24 24 24 23 22 22 22 21 20 19 19 19 18 17 16 15 14 13 13 14 15 16 17 18 18 17 16 17 17 16 17 17 18 19 20 21 21
26 25 24 23 23 23 23 22 21 21 21 20 20 19 18 18 18 18 17 17 16 15 14 14 15 16 17 17 17 18 17 17 18 18 17 17 17 18 19 20 22 22
26 26 25 23 23 23 22 21 21 21 21 20 19 19 19 18 17 17 17 17 16 16 16 15 16 16 16 16 16 17 16 16 17 17 18 18 17 18 18 19 21 22
27 26 24 24 23 22 22 22 23 22 21 21 20 20 20 19 19 18 17 16 16 16 16 16 15 15 14 15 15 15 14 14 15 16 17 17 17 17 18 18 20 21
27 26 24 25 25 24 24 24 24 24 23 23 22 22 21 21 20 19 18 17 16 16 15 15 15 14 14 14 14 14 13 13 14 15 16 17 16 17 17 18 20 21
26 26 25 26 26 26 26 26 26 25 25 24 23 22 21 21 21 21 20 19 17 16 15 14 14 15 15 14 14 15 14 14 15 16 16 16 16 16 17 19 20 21
27 28 26 26 27 27 27 27 27 26 24 23 21 21 21 21 21 21 21 20 17 16 16 15 15 15 15 14 14 15 15 15 16 16 16 16 17 17 17 19 19 19
28 29 27 26 26 26 27 27 27 25 24 22 21 20 20 21 21 21 21 19 16 15 16 16 15 15 15 14 14 15 15 15 16 16 15 16 18 18 17 19 19 19
27 29 28 27 26 26 27 26 26 25 24 23 21 20 21 21 21 21 19 17 16 16 16 16 16 15 15 14 14 14 14 14 14 15 15 16 18 18 17 18 19 20
26 26 27 28 26 26 27 27 26 26 24 23 22 21 21 22 21 19 18 17 17 17 17 16 16 16 15 14 13 13 13 14 14 14 15 15 15 16 16 16 18 19
26 26 26 28 27 27 29 28 27 27 24 23 23 22 21 22 22 19 18 18 17 16 15 14 15 16 15 14 13 12 13 13 14 15 15 15 14 15 15 15 17 17
28 28 27 28 27 27 29 29 27 25 24 24 23 21 21 23 22 20 19 18 16 16 13 12 14 16 15 14 13 13 13 13 14 14 14 15 14 14 14 14 15 15
28 29 30 30 29 28 28 27 25 24 24 24 22 21 23 24 23 21 20 18 17 17 15 14 16 17 16 16 14 13 14 14 14 15 15 15 14 12 12 12 13 13
30 32 33 32 31 30 29 25 24 24 25 24 22 22 25 26 24 22 21 19 19 18 18 19 20 19 17 17 15 14 14 14 14 15 16 16 14 12 11 10 11 11
32 33 33 33 32 32 30 27 26 26 27 25 24 25 27 26 24 22 22 20 20 21 22 22 21 19 17 17 16 14 13 14 14 16 17 17 15 13 12 11 10 10
27 31 32 32 33 32 30 28 28 28 28 27 27 27 28 26 23 23 23 21 22 24 24 23 22 20 17 17 17 16 14 14 14 15 17 17 16 15 15 14 12 11
22 31 32 30 32 33 31 29 30 30 29 29 29 29 28 26 24 23 24 22 22 24 24 22 22 21 19 18 18 18 16 14 14 15 16 17 17 18 17 15 13 12
21 28 31 30 32 34 32 31 32 33 31 30 31 31 29 27 25 24 23 23 23 24 24 23 22 21 21 20 20 21 19 17 16 17 18 19 19 18 17 15 14 13
19 22 28 32 35 35 34 34 35 35 34 33 33 32 29 28 27 25 24 24 24 24 24 23 21 21 22 22 22 22 20 19 18 18 19 20 19 17 16 15 14 13
16 17 21 28 36 38 37 37 37 36 35 35 34 32 30 28 27 27 26 25 24 23 22 23 22 21 21 22 22 21 21 21 21 19 19 19 18 17 16 15 15 14
15 17 17 23 33 39 39 38 38 36 35 36 35 32 30 29 28 27 27 25 23 21 20 21 21 21 21 21 20 20 20 22 23 21 20 20 19 17 17 17 17 16
13 17 18 22 31 38 38 37 38 38 35 34 35 32 30 29 28 27 26 24 21 19 18 18 20 22 22 21 20 20 20 22 22 21 19 19 18 19 19 19 19 18
8 14 17 20 26 33 37 38 37 38 36 34 34 32 31 30 28 26 24 22 21 18 15 16 20 23 23 21 20 21 21 21 20 19 18 18 19 21 22 21 20 19
11 11 15 19 23 26 32 37 37 36 36 35 33 32 31 30 28 27 24 22 20 17 15 16 19 21 22 21 20 20 21 21 20 19 19 20 21 23 23 21 20 19
19 17 17 20 23 23 25 31 36 36 35 34 33 32 31 29 28 26 24 22 20 18 17 17 18 19 19 19 19 19 20 20 20 20 20 21 22 23 22 20 19 18
19 19 20 19 20 21 23 26 32 34 33 32 32 30 28 28 26 25 24 23 21 20 19 18 18 18 18 18 18 19 19 20 20 21 21 21 20 20 20 19 18 17

ECMWFNIL_850_spd_051.txt.gz
Wind_Speed
21 22 25 25 22 19 17 17 18 18 18 20 22 24 23 23 22 22 21 19 19 19 19 19 20 20 21 21 20 19 19 19 18 17 17 17 17 17 17 18 18 18
22 24 25 24 21 18 17 17 17 17 18 20 21 22 22 22 22 22 21 19 19 19 18 18 18 19 20 20 20 20 20 20 19 18 18 18 18 18 18 19 19 19
24 26 27 25 20 17 16 16 16 17 18 20 21 22 23 22 22 21 21 20 19 18 17 17 17 18 20 20 20 20 20 20 19 19 19 19 18 18 19 20 20 20
26 28 29 25 19 17 17 17 17 18 19 20 21 22 23 22 22 22 21 20 19 18 17 17 18 18 19 20 20 20 20 20 19 19 19 19 18 19 20 21 20 20
27 28 25 20 18 19 19 18 18 19 19 20 21 22 23 23 22 22 21 20 19 18 18 18 18 18 18 19 19 19 20 20 19 19 20 19 18 18 20 20 20 21
27 25 21 20 21 22 21 20 19 19 20 20 21 23 23 23 22 22 21 20 19 18 18 18 18 17 18 18 19 19 20 19 19 20 21 19 19 19 19 20 20 21
25 23 22 23 23 22 22 22 21 21 20 20 22 23 23 23 23 22 21 20 19 18 18 18 18 18 18 19 19 19 19 19 18 20 20 19 19 20 20 20 20 21
24 23 24 24 23 22 23 22 22 22 22 22 23 24 24 24 23 22 21 21 20 19 18 18 18 18 18 19 18 18 19 18 18 18 19 19 20 20 20 20 20 21
22 22 24 24 22 22 23 23 22 23 24 25 25 25 25 25 24 23 22 22 21 20 19 19 18 18 18 17 17 18 19 18 17 17 17 18 19 19 19 19 20 21
22 24 24 22 21 22 23 23 23 23 25 26 26 25 25 25 25 24 23 23 22 21 20 19 18 18 17 16 16 16 17 17 16 16 17 17 18 18 18 18 19 21
19 24 23 21 21 23 24 24 24 25 26 27 26 25 24 24 24 25 25 24 21 20 20 19 18 18 17 16 16 15 15 15 15 15 16 16 16 17 18 17 18 19
17 22 22 21 21 24 26 25 25 26 26 25 26 24 23 24 24 24 25 23 21 19 19 18 18 18 17 16 16 15 15 15 15 15 16 16 16 16 17 18 17 18
16 20 20 20 21 25 27 25 26 27 26 24 24 24 24 25 25 25 24 22 20 19 19 19 18 18 18 17 17 16 15 15 15 15 15 16 16 15 16 17 16 16
13 19 21 21 21 24 26 26 26 27 25 23 23 24 26 27 27 26 24 22 21 20 19 19 19 19 19 18 17 16 15 15 15 15 15 16 16 15 15 14 14 15
11 15 21 22 21 23 25 25 26 26 24 23 23 24 27 28 27 27 25 24 23 21 20 18 17 19 20 19 18 17 16 16 15 16 16 16 15 15 14 13 13 14
13 14 19 22 21 21 24 24 24 24 24 23 23 25 28 28 28 27 26 25 24 22 20 18 17 18 20 19 18 18 17 17 17 17 17 16 15 14 14 14 14 15
15 16 19 22 22 22 23 24 24 24 24 23 24 27 29 28 28 28 27 25 23 22 21 19 18 19 20 19 18 18 18 18 18 18 18 17 16 14 14 14 15 16
14 18 19 21 23 24 25 25 25 26 27 26 27 29 29 29 29 28 26 24 23 22 22 21 20 20 19 18 17 17 17 17 17 18 19 19 17 15 15 14 14 14
11 16 20 22 24 27 28 28 28 29 29 30 31 31 30 30 30 29 27 24 23 23 23 22 22 21 18 16 16 16 16 16 16 17 19 20 18 16 16 14 12 11
7 13 20 23 24 27 30 32 33 33 33 34 35 34 32 31 31 30 28 25 23 23 24 24 23 22 19 17 16 16 16 16 16 17 20 21 19 18 17 15 12 11
5 11 18 22 23 26 30 35 37 37 36 37 38 37 34 33 32 30 29 27 26 25 25 26 24 23 22 20 18 18 18 17 16 17 19 21 21 20 18 16 13 12
9 9 15 20 23 24 28 34 38 39 39 39 40 38 35 34 33 32 30 30 29 28 27 27 26 24 24 23 21 21 20 18 17 18 19 20 21 20 19 18 16 14
15 11 11 15 19 20 23 29 34 38 40 41 41 40 37 34 34 33 32 32 32 31 29 28 28 26 24 23 22 22 22 21 20 20 21 21 21 20 19 19 17 16
20 16 13 10 12 13 16 22 27 31 35 39 41 41 37 34 33 31 31 32 31 30 29 29 28 27 25 24 22 21 21 22 22 22 22 22 22 22 20 19 19 18
22 22 19 13 6 6 10 17 22 25 28 31 36 39 37 34 33 29 28 30 30 28 28 28 27 26 25 23 22 20 19 20 21 22 23 23 22 22 21 21 20 19
20 21 23 21 14 6 3 12 17 20 23 26 30 34 36 35 32 27 25 25 25 26 26 25 25 26 24 22 21 19 18 19 19 20 21 21 20 21 22 22 21 20

ECMWFNIL_850_spd_054.txt.gz
Wind_Speed
26 26 23 22 22 21 18 16 12 12 14 17 18 20 21 23 23 22 21 18 17 18 18 19 20 19 19 19 19 19 19 18 19 18 17 16 16 17 18 18 18 18
24 25 24 22 20 19 18 17 14 13 15 16 17 18 19 22 23 22 20 18 18 19 19 20 20 19 19 19 19 19 19 19 19 18 18 17 16 17 18 19 18 18
22 23 23 21 19 18 18 16 14 13 14 16 17 17 18 20 21 21 20 19 19 20 20 20 20 19 19 19 19 19 20 19 19 18 18 17 17 17 17 17 17 17
19 21 21 20 19 19 17 15 13 13 15 17 17 17 17 18 20 21 20 20 20 20 19 20 19 18 18 18 19 20 20 19 18 18 18 17 17 17 17 17 17 17
17 18 20 21 20 20 18 15 14 15 17 17 17 17 17 18 20 20 20 20 20 20 19 19 19 18 17 17 18 19 19 18 18 18 18 17 17 17 17 17 18 19
16 17 19 21 21 21 18 15 15 16 16 17 17 17 18 19 19 20 19 19 19 19 19 18 18 18 17 16 16 17 18 18 18 17 17 17 17 17 17 18 19 20
15 17 17 17 18 20 18 15 15 15 16 17 18 18 19 19 19 19 19 19 19 19 19 18 18 18 17 16 16 17 17 17 17 17 17 17 17 18 18 19 20 21
14 15 15 14 16 19 18 16 16 16 16 18 20 21 21 21 20 19 19 19 19 19 17 17 17 17 17 16 16 16 17 17 17 17 17 18 18 19 19 20 21 22
14 13 12 13 15 18 19 18 17 17 17 19 22 23 22 21 20 20 19 19 18 17 16 16 17 16 16 16 16 16 16 16 16 16 17 18 19 20 21 21 21 22
15 14 13 12 11 14 18 18 18 17 18 20 23 23 22 20 20 19 19 19 18 17 17 17 17 16 16 16 16 16 15 15 15 16 16 17 18 20 21 21 22 21
14 14 15 14 11 10 14 16 16 17 18 20 22 22 21 20 20 19 19 19 18 17 17 17 16 16 15 16 15 15 15 15 15 16 16 16 17 19 20 20 20 20
15 13 13 15 13 10 11 13 15 16 17 19 21 21 20 21 21 20 20 20 19 17 17 17 15 15 15 15 15 15 15 15 15 16 16 16 17 18 19 19 19 18
16 14 12 13 14 12 11 12 15 15 15 18 20 21 21 21 21 21 21 21 19 18 18 18 16 15 15 15 15 15 15 15 15 16 16 16 16 17 17 18 18 17
14 14 14 11 12 12 11 13 15 15 15 17 19 21 21 20 19 20 20 21 20 18 18 18 17 16 15 15 16 15 15 15 15 15 16 16 16 17 17 17 18 17
12 13 13 12 11 11 11 11 14 14 15 17 18 20 20 18 17 19 21 21 20 19 19 19 18 17 16 16 16 16 16 16 15 15 16 16 16 17 17 17 17 18
11 11 11 11 10 12 13 12 13 15 16 17 19 20 20 18 18 20 22 22 20 19 19 19 19 18 17 16 16 16 16 16 16 16 16 16 16 17 17 17 17 18
10 9 10 10 10 12 14 14 14 15 17 19 20 21 22 21 20 21 22 22 20 19 20 20 19 18 16 15 15 16 17 17 16 16 16 16 16 16 17 17 17 17
15 10 8 10 12 14 15 16 16 16 17 19 20 22 23 23 22 21 21 21 21 20 20 20 20 19 17 15 15 16 17 17 17 16 15 15 15 15 16 16 16 16
22 16 11 9 12 16 17 18 18 18 18 19 21 22 23 23 23 22 22 22 22 22 21 21 20 20 18 16 15 16 17 17 17 17 16 15 16 16 15 14 14 15
30 23 17 13 11 13 17 18 18 18 20 21 23 24 24 24 24 25 25 24 24 23 22 21 21 21 19 18 16 16 16 17 17 17 17 17 17 17 15 14 14 14
35 31 24 19 16 14 13 16 18 18 20 23 25 27 27 26 25 27 27 26 25 23 22 22 21 21 20 19 18 17 16 16 17 17 16 17 18 17 15 14 14 13
35 34 31 25 20 18 16 13 15 17 19 23 26 28 29 28 28 29 29 29 26 24 23 23 22 21 21 21 19 17 16 16 16 16 15 16 18 18 17 16 15 13
33 33 33 30 26 22 20 16 13 15 17 20 24 27 27 28 29 31 32 31 29 26 25 25 23 22 22 23 21 19 17 16 16 16 15 15 17 19 19 18 16 14
30 31 31 31 29 26 23 19 15 14 15 17 21 23 24 24 26 30 33 33 30 28 28 26 25 24 24 24 23 21 20 19 17 17 16 15 16 17 19 19 18 16
27 28 29 29 29 27 24 21 17 14 12 13 15 17 18 19 19 23 31 34 30 28 29 27 26 25 25 24 24 23 22 21 19 18 18 17 17 18 19 20 19 18
26 26 26 27 27 26 24 21 19 16 12 9 8 9 10 12 13 14 22 31 31 27 27 26 25 25 25 24 23 22 22 21 20 19 19 19 19 19 19 20 19 18

ECMWFNIL_850_spd_057.txt.gz
Wind_Speed
16 17 19 20 18 16 18 19 19 18 18 17 15 14 13 12 12 14 15 18 19 18 17 18 18 17 16 17 17 16 17 19 19 19 18 17 16 15 14 14 16 17
14 16 18 19 17 15 17 19 18 18 18 16 14 13 13 12 13 15 16 18 19 19 18 17 16 16 15 15 16 16 17 18 19 19 19 17 16 15 14 15 17 18
13 15 17 18 18 17 17 18 17 17 17 14 13 14 14 13 14 15 16 17 20 20 18 17 16 15 15 15 15 17 18 18 19 19 18 17 16 16 15 15 17 19
13 14 16 17 19 19 17 16 16 18 17 14 13 14 14 13 13 14 15 17 20 20 18 17 16 15 14 14 15 17 18 18 18 18 18 17 16 16 15 16 17 19
11 11 13 15 17 19 18 17 17 17 16 14 14 15 14 13 13 13 15 17 17 18 17 17 16 15 14 13 14 16 16 17 18 18 18 17 16 16 16 16 17 19
11 10 11 13 15 16 18 19 17 16 16 15 16 16 14 13 14 14 15 16 16 16 17 17 16 15 14 13 13 14 15 16 17 17 18 18 17 17 16 16 18 19
13 12 11 12 12 13 16 18 18 17 16 16 17 16 14 14 15 15 15 15 15 17 18 18 17 15 14 13 13 13 14 15 16 17 17 17 17 17 17 17 17 18
14 13 12 12 12 12 13 16 17 17 16 16 17 15 13 15 15 15 15 15 16 17 18 18 17 16 14 14 13 14 15 15 16 17 17 17 17 17 17 17 17 18
14 13 13 11 10 11 12 13 14 16 16 16 15 14 14 15 16 15 16 16 16 17 18 18 16 16 15 14 14 14 14 15 15 16 16 17 17 17 17 17 18 18
12 12 13 11 8 8 10 11 13 16 17 17 15 14 14 15 16 16 16 16 17 18 18 17 16 15 14 13 13 13 13 14 14 15 16 16 17 17 17 18 19 19
11 11 12 12 9 7 8 10 13 15 17 17 15 14 15 15 16 16 16 16 17 18 18 17 15 14 13 12 12 12 13 14 14 14 15 16 17 17 17 18 18 18
10 10 10 12 10 7 6 8 11 13 16 17 16 14 15 16 16 16 16 16 16 17 18 17 15 14 12 12 12 12 13 13 14 15 15 16 17 16 17 17 17 18
9 9 10 11 11 8 6 6 7 9 13 16 15 15 15 16 16 16 15 15 16 17 18 17 16 14 12 12 12 12 13 13 14 15 15 15 16 16 17 17 16 17
10 9 9 9 10 9 6 4 6 7 10 12 12 13 15 15 15 15 14 15 16 18 19 18 16 14 13 12 12 12 13 13 14 14 14 15 16 16 17 17 16 17
15 11 9 9 9 8 6 4 5 6 7 9 10 11 12 12 14 14 13 14 16 18 19 18 15 14 13 13 12 12 13 13 14 14 14 14 15 16 17 17 17 17
21 15 11 9 8 8 6 4 5 6 7 9 10 10 10 11 13 14 13 13 15 18 18 16 15 14 13 13 13 13 13 13 14 14 14 14 15 16 16 16 17 17
28 21 14 11 8 8 7 5 5 7 8 10 10 9 10 12 13 14 13 14 16 18 17 15 14 14 14 14 14 14 14 14 14 14 14 15 15 15 16 16 17 17
32 28 22 15 10 9 8 8 8 9 10 11 11 10 11 13 14 15 14 15 17 19 18 15 14 15 15 14 14 14 14 15 16 16 15 15 15 14 15 15 16 16
32 32 29 23 15 10 9 8 9 10 11 12 12 12 12 13 14 15 15 16 18 19 18 16 14 14 15 15 14 14 14 15 16 17 16 16 15 15 15 15 15 15
33 33 33 30 24 16 10 7 7 8 10 12 12 14 14 14 15 15 15 16 17 19 19 17 16 15 16 16 15 15 14 15 17 18 17 17 16 15 14 14 14 14
35 34 33 33 31 26 18 11 8 7 8 10 12 14 16 17 17 17 17 17 17 18 19 18 17 17 17 17 16 16 15 16 17 18 18 18 17 15 14 14 14 14
35 36 35 34 33 32 28 22 16 12 10 10 11 13 15 16 18 19 20 19 19 19 19 19 20 19 18 18 18 17 17 17 18 18 18 18 17 16 16 16 15 14
34 35 36 36 34 34 33 31 27 22 19 15 13 12 13 14 16 19 21 21 21 21 21 20 21 22 21 20 19 19 18 18 18 17 17 17 17 17 18 17 16 15
33 34 35 35 35 34 33 32 31 29 26 23 20 17 15 13 14 16 18 19 20 22 22 22 22 23 24 22 20 19 19 18 17 17 17 17 17 17 19 19 18 17
31 32 33 33 33 32 32 31 30 28 26 25 23 21 18 16 13 13 15 16 17 19 21 22 23 23 25 25 22 19 19 19 18 16 16 16 16 16 19 21 21 20
30 31 31 31 30 30 29 29 27 25 23 22 21 19 17 15 13 11 10 11 12 14 16 19 21 21 23 25 23 21 21 21 20 18 17 17 17 17 18 21 23 22

ECMWFNIL_850_spd_060.txt.gz
Wind_Speed
8 8 9 11 12 15 16 15 14 13 12 12 12 12 12 13 14 14 15 16 14 16 19 18 18 19 18 17 16 16 18 19 19 20 19 17 17 18 20 20 18 17
7 7 9 10 12 14 14 15 15 15 14 13 13 13 13 14 14 14 15 16 15 17 20 19 18 19 19 18 17 16 17 18 18 19 20 20 20 19 19 20 18 19
7 8 9 10 11 13 13 13 14 15 15 15 14 14 14 14 14 14 15 15 16 19 21 21 20 19 19 18 17 17 17 17 18 19 20 20 20 19 19 19 18 19
7 8 9 9 11 12 13 13 13 14 15 15 15 14 14 15 14 14 15 16 17 19 21 22 21 19 19 18 17 17 17 17 17 17 18 19 19 19 19 18 18 18
10 9 10 10 11 12 13 13 13 14 15 14 14 13 14 15 14 14 15 16 18 20 20 22 22 20 19 19 18 17 16 16 16 16 18 19 19 19 19 18 18 17
13 12 11 12 12 12 13 14 14 13 14 15 14 14 15 15 15 15 15 16 19 22 22 22 23 20 19 19 18 16 15 15 16 17 18 19 19 19 18 17 17 17
15 13 13 13 13 13 13 14 15 14 15 15 15 15 16 16 16 16 16 17 20 22 22 23 23 21 20 20 18 16 15 16 16 18 18 18 19 18 17 17 16 16
14 14 14 13 14 14 13 13 14 14 15 16 16 16 17 18 18 18 18 19 20 22 23 23 22 21 21 20 18 16 16 16 17 18 18 18 18 17 17 17 17 17
13 13 14 14 14 15 14 13 14 14 15 16 17 17 18 19 19 19 20 20 20 21 22 21 20 21 20 18 17 16 16 17 17 17 17 17 16 16 17 17 17 18
12 12 13 14 14 15 15 14 13 15 17 16 17 18 17 17 18 19 20 19 19 20 20 18 19 20 19 18 17 16 16 17 17 16 16 16 16 16 16 16 17 18
12 12 12 13 14 14 15 15 13 15 18 18 20 20 16 14 16 18 19 19 19 20 19 18 19 19 18 16 16 16 16 16 16 16 16 16 16 16 16 16 16 18
13 12 12 12 13 13 14 14 12 14 17 18 20 19 15 14 14 16 18 18 18 19 19 19 18 18 16 15 16 16 16 16 16 16 16 16 16 16 16 16 16 17
16 13 11 11 12 12 13 12 10 11 13 14 15 13 13 13 12 15 18 17 17 18 18 18 17 16 15 15 16 16 16 16 16 16 16 16 16 16 16 17 16 17
18 16 13 12 12 12 12 11 8 9 9 10 11 8 9 10 9 11 14 14 14 14 14 15 15 15 15 16 17 17 16 16 15 16 16 16 16 16 16 16 17 18
18 17 15 13 12 11 10 9 7 7 6 6 8 8 7 8 8 8 10 10 10 10 12 15 15 15 15 16 16 16 16 16 16 16 16 16 17 17 17 17 17 18
18 18 17 15 13 11 10 10 8 6 6 4 4 7 9 10 11 10 8 8 9 9 12 15 15 14 14 15 15 15 15 15 16 17 16 16 16 16 17 18 18 18
18 18 18 17 16 14 11 10 9 7 7 5 3 5 8 11 12 11 10 9 9 10 12 13 13 13 13 13 14 14 14 14 16 17 17 16 16 16 16 17 17 17
19 18 19 19 18 17 15 12 10 8 7 7 5 4 7 9 11 12 13 13 10 10 11 12 13 12 11 11 13 14 14 14 14 14 16 17 17 16 16 16 16 17
19 19 19 20 20 20 19 17 14 10 8 6 5 5 5 7 9 12 14 15 14 12 12 13 13 12 10 10 12 14 15 15 14 13 14 15 16 16 16 15 16 16
19 20 20 20 21 21 23 23 19 16 13 10 7 6 6 6 8 10 11 13 15 15 14 14 13 11 11 11 12 14 15 16 15 14 14 15 15 15 16 16 16 16
20 20 20 20 21 21 24 26 25 23 19 16 13 10 8 6 7 8 9 11 13 14 14 13 12 11 12 13 14 15 16 16 15 15 15 15 15 15 15 15 14 14
20 20 20 20 21 22 24 27 28 28 26 24 21 18 14 11 8 8 8 10 11 12 13 14 13 13 14 14 15 16 17 17 17 16 16 16 17 16 15 14 14 13
21 21 20 20 21 21 23 25 27 28 29 28 27 26 23 19 15 12 10 9 9 10 12 15 16 16 16 16 17 17 18 19 19 17 17 17 17 16 16 16 16 16
21 21 20 21 21 21 21 22 23 23 25 25 26 26 26 25 23 20 17 14 12 9 9 13 15 16 17 18 18 19 19 20 20 17 17 19 18 18 19 19 18 18
21 21 21 21 21 20 19 20 20 20 20 21 21 21 22 24 24 22 21 19 17 14 11 11 11 13 16 18 19 20 21 23 21 18 18 21 22 22 23 22 20 19
22 20 21 22 21 20 19 18 18 18 18 18 18 18 18 21 22 23 23 21 20 18 15 12 11 10 12 15 18 21 22 24 24 22 22 24 23 23 25 25 23 23